Regional Weather Roundup
Issued by NWS Kansas City/Pleasant Hill, MO

Home | Current Version | Previous Version | Text Only | Print | Product List | Glossary On
Versions: 1 2 3 4 5 6 7 8 9 10 11 12 13 14 15 16 17 18 19 20 21 22 23 24 25 26 27 28
000
ASUS43 KEAX 201510
RWREAX

WEATHER ROUNDUP FOR EASTERN KANSAS AND NORTHWEST MISSOURI
NATIONAL WEATHER SERVICE KANSAS CITY/PLEASANT HILL MO
900 AM CST MON NOV 20 2017

KSZ040-057-103>105-MOZ028-029-037-043-201600-
...KANSAS CITY METROPOLITAN AREA...

CITY           SKY/WX    TMP DP  RH WIND       PRES   REMARKS
K.C. INTL      PTSUNNY   48  28  46 S20G28    29.90F
K.C. DOWNTOWN  SUNNY     50  28  42 S17G23    29.93F
LEES SUMMIT    SUNNY     47  30  51 SW18G26   29.95F
OLATHE - IXD   SUNNY     48  29  47 S18G28    29.94F
OLATHE - OJC   SUNNY     46  30  53 S13G22    29.94F
LAWRENCE       SUNNY     48  29  47 S10       29.93F

$$

MOZ001>008-011>017-020>025-030>033-038>040-044>046-053-054-201600-
...NORTHERN AND CENTRAL MISSOURI...

CITY           SKY/WX    TMP DP  RH WIND       PRES   REMARKS
ST. JOSEPH     SUNNY     48  28  46 S13       29.87F
MOSBY          SUNNY     50  28  43 S10       29.92F
WARRENSBURG    SUNNY     45  30  57 S15G22    29.99F
WHITEMAN AFB   MOSUNNY   46  30  54 SW18      29.95F
CLINTON        SUNNY     46  30  53 MISG      30.03F
SEDALIA        SUNNY     48  31  51 SW22G31   30.01F
WARSAW         NOT AVBL
CHILLICOTHE      N/A     45  31  58 S13       29.92F
KIRKSVILLE     SUNNY     47  30  51 SW18G28   29.92F

$$

MOZ041-047>049-056>058-063>065-088>090-097-201600-
...EASTERN AND SOUTHERN MISSOURI...

CITY           SKY/WX    TMP DP  RH WIND       PRES   REMARKS
ST. LOUIS INTL PTSUNNY   47  24  40 SW16G25   30.09S
SPIRIT OF STL  CLOUDY    46  24  42 S10       30.09F
COLUMBIA       SUNNY     44  30  57 S15       30.03F
JEFFERSON CITY SUNNY     44  28  53 VRB7      30.06F
ROLLA          CLOUDY    44  26  49 S16       30.09F
OSAGE BEACH    SUNNY     41  28  60 SE7       30.09F
SPRINGFIELD    SUNNY     43  30  60 S14       30.10S
BRANSON        MOSUNNY   46  27  46 SE6       30.15S
JOPLIN         SUNNY     50  29  44 S21G31    30.07F
WEST PLAINS    CLOUDY    45  22  40 S13       30.17S

$$

IAZ060-094-KSZ022-034>040-054-083-096-NEZ052-066-093-201600-
...KANSAS...SOUTHEAST NEBRASKA AND IOWA...

CITY           SKY/WX    TMP DP  RH WIND       PRES   REMARKS
TOPEKA         SUNNY     46  29  51 S9        29.91S
MANHATTAN      SUNNY     47  26  44 SW10      29.87S
EMPORIA        LGT RAIN  43  27  53 S16       29.93F
CHANUTE        SUNNY     47  30  51 S16G23    30.00F
WICHITA        MOSUNNY   45  29  53 S20       29.92F
OMAHA          PTSUNNY   42  26  53 S13       29.73F
LINCOLN        SUNNY     43  24  47 S9G16     29.76F
FALLS CITY     SUNNY     45  27  49 S16       29.83F
LAMONI         SUNNY     45  30  55 SW15      29.83F
DES MOINES     MOSUNNY   44  28  53 S16       29.77F

$$





USA.gov is the U.S. government's official web portal to all federal, state and local government web resources and services.